Starlink 4448

operational
NORAD ID: 53504 Int'l Des: 2022-099 Owner: SPXS Country: US Constellation: starlink
LEOCIRCULARRETROGRADESSO

About Starlink 4448

Description loading...

Live Position

Loading 3D Globe...

Upcoming Passes

Altitude History

Altitude vs Time

uPlot chart will show altitude changes over time

Two-Line Element Set

1 53504U 22099AR 26061.60883174 -.00000299 00000-0 -18760-4 0 9999
2 53504 97.6030 183.2918 0002053 77.1409 283.0045 15.01268665194921
Epoch: Mar 2, 2026 • Age: 37 hours

Current Status

Altitude 575.0 km
Velocity 7.58 km/s
Sub-Earth Point 81.20°N, 123.07°E
Launch Date Aug 12, 2022
Age 3.5 years
Type internet

Technical Details

Classification Payload
Mass 300.00 kg
Dry Mass 275.00 kg
Total Mass 300.00 kg
Length 0.20 m
Diameter 2.80 m
Span 9.00 m
Shape Box + pan
Manufacturer SPXS
Bus Type Starlink
Phase Status In Orbit
Owner/State SPXS/US

Large Constellations

Loading constellations...